Starlink 31298

operational
NORAD ID: 59167 Int'l Des: 2024-044 Owner: SPXS Country: US Constellation: starlink
LEOCIRCULAR

Über Starlink 31298

Beschreibung wird geladen...

Live-Position

3D-Globus wird geladen...

Nächste Überflüge

Höhenverlauf

Altitude vs Time

uPlot chart will show altitude changes over time

Zweizeiliger Elementsatz

1 59167U 24044R 25258.30926116 -.00008327 00000-0 -29277-3 0 9994
2 59167 43.0005 17.4650 0002958 295.7566 64.2981 15.27643582 86747
Epoch: 15. Sept. 2025 • Age: 5 hours

Aktueller Status

Höhe 483.6 km
Geschwindigkeit 7.62 km/s
Subsatellitenpunkt -0.10°S, 7.82°E
Startdatum 4. März 2024
Alter 1.5 years
Typ internet

Technische Details

Klassifizierung Payload
Masse 730.00 kg
Trockenmasse 700.00 kg
Gesamtmasse 730.00 kg
Länge 0.30 m
Durchmesser 4.10 m
Spannweite 29.00 m
Form Box + pan
Hersteller SPXS
Bus-Typ Starlink V2M
Phasenstatus In Orbit
Besitzer/Staat SPXS/US

Große Konstellationen

Loading constellations...